#timestamp,LO_Frequency,Hit,StdDev 
1570485615.6,286047000.9,N
1570485635.4,286047000.7,N
1570485655.2,286046998.1,N
1570485675.1,286046994.9,Y
1570485676.0,286046994.9,P
1570485695.8,286046995.1,N
1570485715.7,286046995.4,N
1570485735.5,286046993.7,Y
1570485755.3,286046997.7,P
1570485775.2,286046995.0,P
1570485795.0,286046993.7,P
1570485795.9,286046993.7,Y
1570485815.8,286046999.4,P
1570485835.6,286046997.6,N
1570485855.4,286046993.5,P
1570485875.3,286046992.8,Y
1570485895.1,286046994.2,P
1570485915.8,286046993.9,P
1570485935.7,286046994.5,P
1570485955.5,286046992.2,Y
1570485975.4,286046996.1,P
1570485995.2,286046996.2,P
1570486015.0,286046999.4,N
1570486015.9,286046999.4,N
1570486035.8,286046995.0,N
1570486055.6,286046991.8,Y
1570486075.4,286046997.7,P
1570486095.3,286046994.0,P
1570486115.1,286046991.9,P
1570486135.9,286046990.1,Y
1570486155.7,286046996.1,P
1570486175.5,286046994.6,P
1570486195.4,286046992.8,P
1570486215.2,286046990.6,Y
1570486235.1,286046995.9,P
1570486236.0,286046995.9,P
1570486255.8,286046993.3,P
1570486275.6,286046994.8,Y
1570486295.5,286046997.0,P
1570486315.3,286046997.1,N
1570486335.1,286046998.1,N
1570486355.9,286047001.1,N
1570486375.7,286047000.3,N
1570486395.6,286047002.8,N
1570486415.4,286047000.8,N
1570486435.2,286046998.4,N
1570486455.1,286047000.5,N
1570486456.0,286047000.5,N
1570486475.8,286047001.1,N
1570486495.6,286046999.1,N
1570486515.5,286046999.0,N
1570486535.3,286047001.0,N
1570486555.2,286046999.8,N
1570486575.9,286047001.1,N
1570486595.7,286047000.4,N
1570486615.6,286047001.2,N
1570486635.4,286047000.5,N
1570486655.2,286047000.9,N
1570486675.1,286047000.5,N
1570486676.0,286047000.5,N
1570486695.8,286047001.7,N
1570486715.7,286047001.4,N
1570486735.5,286047000.2,N
1570486755.3,286047000.3,N
1570486775.2,286046999.1,N
1570486795.9,286046996.5,N
1570486815.7,286046996.1,N
1570486835.6,286046991.8,Y
1570486855.4,286046990.2,P
1570486875.3,286046991.1,N
1570486895.1,286046990.7,N
1570486896.0,286046990.7,N
1570486915.8,286046990.2,N
1570486935.7,286046990.7,N
1570486955.5,286046991.5,N
1570486975.3,286046989.1,Y
1570486995.2,286046995.2,P
1570487015.0,286046996.4,N
1570487015.9,286046996.4,N
1570487035.8,286046993.4,Y
1570487055.6,286046998.7,P
1570487075.4,286046998.7,N
1570487095.3,286046995.2,N
1570487115.1,286046994.5,Y
1570487135.9,286046995.1,P
1570487155.7,286046996.2,P
1570487175.5,286046994.2,P
1570487195.4,286046994.8,Y
1570487215.2,286046995.4,P
1570487235.1,286046995.4,P
1570487236.0,286046995.4,P
1570487255.8,286046994.9,Y
1570487275.6,286046999.7,P
1570487295.5,286047002.0,N
1570487315.3,286047002.2,N
1570487335.2,286047002.2,N
1570487355.9,286047002.4,N
1570487375.7,286047001.6,N
1570487395.6,286047004.1,N
1570487415.4,286047004.2,N
1570487435.2,286047003.6,N
1570487455.1,286047001.4,N
1570487456.0,286047001.4,N
1570487475.8,286047004.2,N
1570487495.7,286047002.6,N
1570487515.5,286046999.7,N
1570487535.3,286047002.2,N
1570487555.2,286047001.3,N
1570487575.0,286047004.1,N
1570487575.9,286047004.1,N
1570487595.7,286047006.0,N
1570487615.6,286047004.9,N
1570487635.4,286047005.4,N
1570487655.3,286047004.7,N
1570487675.1,286047004.9,N
1570487676.0,286047004.9,N
1570487695.8,286047006.1,N
1570487715.7,286047008.7,Y
1570487735.5,286047005.1,P
1570487755.3,286047007.2,P
1570487775.2,286047007.6,P
1570487795.0,286047007.2,Y
1570487795.9,286047007.2,P
1570487815.8,286046999.8,N
1570487835.6,286047001.1,N
1570487855.4,286046998.4,N
1570487875.3,286046999.0,N
1570487895.1,286046997.4,N
1570487915.9,286046997.9,N
1570487935.7,286046997.8,N
1570487955.5,286046995.9,N
1570487975.4,286046994.8,N
1570487995.2,286046994.4,N
1570488015.0,286046995.9,N
1570488015.9,286046995.9,N
1570488035.8,286046993.3,N
1570488055.6,286046995.2,N
1570488075.5,286046997.9,N
1570488095.3,286046999.1,N
1570488115.1,286046997.1,N
1570488135.9,286046998.4,N
1570488155.7,286046998.1,N
1570488175.5,286047000.8,N
1570488195.4,286047002.8,N
1570488215.2,286047003.3,N
1570488235.1,286047002.0,N
1570488236.0,286047002.0,N
1570488255.8,286047000.8,N
1570488275.6,286046998.3,N
1570488295.5,286046998.0,N
1570488315.3,286046994.7,N
1570488335.1,286046990.4,N
1570488355.9,286046991.2,N
1570488375.7,286046990.5,Y
1570488395.6,286046994.7,P
1570488415.4,286046993.1,P
1570488435.2,286046990.3,P
1570488455.1,286046994.8,N
1570488456.0,286046994.8,N
1570488475.8,286046990.6,Y
1570488495.6,286046995.6,P
1570488515.5,286046996.1,P
1570488535.3,286046997.5,P
1570488555.2,286046995.6,Y
1570488575.9,286046999.3,P
1570488595.7,286046999.0,N
1570488615.6,286047002.4,N
1570488635.4,286047002.2,N
1570488655.2,286047005.0,N
1570488675.1,286047001.3,N
1570488676.0,286047001.3,N
1570488695.8,286047003.2,N
1570488715.7,286047003.5,N
1570488735.5,286047006.0,N
1570488755.3,286047003.9,N
1570488775.2,286047002.8,N
1570488795.0,286047000.8,N
1570488795.9,286047000.8,N
1570488815.8,286047002.3,N
1570488835.6,286046998.5,N
1570488855.4,286047001.2,N
1570488875.3,286047000.6,N
1570488895.1,286047000.3,N
1570488896.0,286047000.3,N
1570488915.8,286047000.9,N
1570488935.7,286047001.2,N
1570488955.5,286047002.2,N
1570488975.4,286047001.7,N
1570488995.2,286047001.3,N
1570489015.0,286047005.8,N
1570489015.9,286047005.8,N
1570489035.8,286047007.1,Y
1570489055.6,286047006.3,P
1570489075.4,286047006.7,N
1570489095.3,286047006.2,N
1570489115.1,286047009.1,Y
1570489135.9,286047002.3,P
1570489155.7,286047000.0,N
1570489175.5,286047000.1,N
1570489195.4,286046998.6,N
